Wind_Speed
12 12 13 16 20 23 26 29 32 34 36 37 39 41 41 40 37 34 33 33 33 34 35 36 38 41 45 49 55 61 66 69 73 72 65 55 49 48 49 50 52 53 55 57 59 60 60 61 61 60 57 51 46 43 43 43 43 43 42 41 41 41 44 49 54 58 61 63 64 65 65 66 66 65 64 64 64 63 61 59 55 52 51 53 53 52
11 11 12 16 19 22 25 28 31 33 35 37 40 41 42 41 37 34 33 32 32 32 33 34 36 39 42 46 51 58 64 68 73 73 68 58 51 48 49 51 52 52 52 55 57 58 59 60 60 60 59 55 51 47 46 45 46 46 47 45 43 42 43 46 51 57 61 63 65 67 67 67 66 65 65 66 66 65 64 62 58 55 54 53 52 52
10 10 12 15 18 21 24 27 30 33 35 37 39 42 43 41 38 34 33 32 31 31 31 33 35 38 41 44 49 54 61 66 71 74 71 62 53 49 49 51 52 52 51 53 55 56 57 58 58 58 58 57 54 50 48 46 46 46 47 48 47 45 43 44 48 52 56 59 63 67 69 69 68 66 66 67 67 66 65 64 61 58 56 53 52 51
11 11 11 13 16 20 23 26 29 31 33 35 38 41 43 42 39 35 34 33 32 31 31 32 34 37 40 43 47 52 58 63 69 74 73 66 56 50 50 52 53 52 52 52 52 53 54 54 54 54 55 55 54 51 49 47 45 45 45 47 47 46 44 44 45 46 47 50 55 62 67 68 67 66 66 68 68 67 65 64 61 58 55 53 52 51
11 11 11 12 15 18 22 25 27 30 32 33 36 40 43 44 41 36 34 33 32 32 31 32 34 37 39 42 45 49 54 60 66 72 74 69 59 51 50 52 53 52 51 51 50 50 50 49 49 50 52 52 52 50 49 47 45 43 43 44 45 45 43 44 45 45 45 46 50 56 60 60 60 62 65 66 66 65 64 62 60 57 54 52 51 50
11 10 10 12 14 17 21 24 26 28 30 32 35 39 43 44 42 36 32 32 32 32 32 32 34 36 39 40 42 45 50 55 62 70 74 71 62 53 50 52 53 53 52 51 50 48 47 46 45 46 48 49 49 49 49 46 43 41 41 42 42 42 40 41 44 48 49 49 52 55 55 52 52 56 61 63 63 63 62 61 58 56 54 52 51 50
11 10 10 12 14 16 19 22 24 26 28 30 33 37 41 44 42 37 32 32 32 32 31 32 33 35 38 41 42 43 44 50 58 68 74 73 65 55 50 52 54 54 54 52 50 48 47 45 44 44 45 47 47 46 45 43 41 40 41 41 40 38 37 38 43 48 51 52 54 58 59 52 49 53 57 60 61 61 60 59 57 55 53 52 51 50
11 10 11 12 14 16 18 20 22 24 26 28 30 34 38 42 43 39 35 32 31 31 30 29 29 31 35 39 42 42 41 45 53 64 73 74 67 57 50 50 53 55 55 53 51 49 47 45 44 43 44 45 44 43 42 41 41 41 41 40 38 36 35 36 42 48 50 48 49 54 60 57 54 54 56 58 59 59 58 57 55 54 52 52 51 50
12 11 11 12 14 16 17 18 20 22 24 25 28 31 35 39 42 42 38 33 30 29 29 28 27 28 32 35 39 39 38 40 48 59 71 74 70 60 51 50 53 56 56 54 52 49 47 45 44 43 43 43 42 41 41 41 42 42 41 39 37 36 35 36 41 48 54 47 43 45 52 57 56 55 56 57 57 56 55 55 54 53 52 51 51 50
12 11 11 13 14 16 16 16 18 20 22 24 26 29 33 36 39 40 39 35 31 29 28 27 26 27 29 32 36 37 36 36 42 53 65 72 71 63 53 49 51 56 57 56 53 50 46 44 43 42 43 43 42 41 41 42 43 42 41 39 38 37 37 38 41 48 56 52 45 42 45 51 53 53 54 55 54 53 53 54 54 53 52 52 51 51
12 11 11 13 15 16 16 16 16 18 21 22 24 26 29 33 36 38 38 37 33 30 28 27 26 26 27 29 33 36 35 34 38 46 58 67 70 66 56 48 49 54 58 57 55 52 47 43 42 42 43 44 44 43 43 43 42 41 40 39 38 38 39 40 42 47 56 60 55 46 42 44 48 50 52 53 52 51 51 52 54 54 53 53 52 51
13 11 11 13 15 16 17 16 16 17 19 20 21 23 26 30 35 37 37 37 35 32 28 26 25 25 27 28 31 34 35 34 36 41 50 60 66 66 58 49 47 52 57 59 57 53 48 44 41 42 44 47 48 46 45 44 42 40 38 38 37 38 38 39 41 44 52 60 61 54 44 42 44 48 51 51 51 50 49 50 52 54 54 54 54 53
13 11 11 13 15 17 17 17 17 17 19 20 22 24 26 29 33 37 38 37 37 34 30 26 24 25 26 29 31 32 32 32 34 38 44 52 61 64 61 51 46 49 58 60 59 55 50 45 42 42 44 49 50 50 47 44 43 41 39 38 37 37 37 37 37 39 43 50 54 53 47 44 44 48 51 52 50 49 48 48 50 52 53 54 55 54
13 11 11 13 15 17 18 18 18 19 21 22 23 24 26 27 30 33 36 37 38 36 32 28 25 24 25 27 30 31 30 29 29 32 37 45 55 62 62 54 46 47 56 61 60 57 52 47 43 41 44 48 51 51 49 46 44 43 42 40 39 38 36 35 35 36 37 40 42 44 44 44 44 45 48 51 50 48 48 47 48 49 51 53 55 55
14 12 12 13 15 18 19 19 20 20 21 22 23 23 23 23 25 29 33 36 38 38 35 30 27 25 24 26 29 32 29 26 23 25 31 39 49 57 60 54 47 46 53 60 61 58 54 50 43 40 42 45 48 51 51 48 46 45 45 44 43 41 39 37 35 35 36 37 38 39 41 42 43 43 44 47 47 47 47 48 48 50 52 54 56 56
13 12 12 12 15 18 20 20 20 20 21 21 22 23 23 23 25 27 31 34 37 38 37 34 31 28 26 26 29 30 28 23 20 22 26 32 42 52 56 53 47 45 50 58 61 59 55 51 45 40 40 43 46 49 51 50 49 47 47 47 46 45 43 40 38 36 35 36 36 37 38 39 40 40 41 43 45 46 46 47 49 52 56 58 58 58
13 12 11 12 15 18 20 21 21 21 21 22 23 25 26 26 26 27 28 30 33 36 39 37 34 30 28 27 27 28 28 24 21 21 22 25 34 45 53 52 47 44 47 56 60 58 55 52 48 42 39 40 44 47 49 50 49 49 49 49 49 48 46 44 41 38 35 34 34 35 36 36 35 36 38 40 43 45 46 47 49 53 58 61 61 60
13 12 11 12 15 18 20 21 22 22 22 24 25 26 27 26 26 25 26 27 30 34 38 39 37 32 28 26 26 27 28 26 23 20 20 21 27 37 47 50 48 44 43 51 57 58 55 52 49 45 41 39 41 44 46 48 49 49 49 51 51 50 49 47 45 42 39 36 35 34 34 33 33 33 34 36 39 42 45 46 47 50 55 60 61 59
13 11 11 12 15 18 21 22 23 23 24 25 26 26 26 26 25 25 25 26 29 33 37 39 38 33 28 26 25 27 28 27 25 23 21 20 22 28 39 46 48 45 41 45 52 57 55 52 49 47 45 42 41 41 43 46 48 49 49 50 51 51 50 49 48 46 43 40 38 36 35 33 32 32 32 32 33 35 37 40 43 47 51 56 58 58
12 11 11 12 15 18 21 23 23 24 25 26 26 27 27 27 27 27 27 27 28 31 34 37 37 34 29 26 24 24 25 26 25 25 23 21 18 21 31 41 47 47 42 41 47 53 54 51 49 48 45 43 40 39 39 42 46 49 50 50 51 52 51 51 51 49 47 45 42 39 38 36 34 33 32 32 31 31 30 31 33 38 43 49 53 54
12 11 11 12 15 18 21 23 24 24 25 26 26 27 27 28 28 29 28 28 28 28 30 34 37 35 31 28 25 24 24 25 25 25 24 20 17 17 23 34 44 48 45 41 43 49 52 51 50 49 46 44 41 37 37 38 42 46 49 51 51 52 53 53 53 52 50 48 45 43 41 40 38 36 34 33 32 31 30 29 29 30 34 40 45 47
11 10 10 12 15 18 21 23 24 24 25 26 27 28 28 28 29 29 29 28 28 27 28 32 35 36 34 30 27 26 26 26 26 26 24 20 15 14 17 26 37 45 46 42 41 45 50 51 51 50 48 45 42 39 38 38 39 42 47 50 52 52 54 54 54 53 52 50 48 46 45 43 41 39 37 36 34 33 32 31 31 31 31 35 39 42
10 10 10 11 14 18 21 23 25 25 26 26 27 28 28 28 29 29 29 29 28 27 28 30 33 35 35 32 28 27 26 26 26 25 24 21 18 16 16 21 30 40 44 43 40 41 47 51 52 51 50 47 43 42 41 40 39 39 43 48 52 53 54 55 55 55 53 51 50 48 47 45 43 40 38 37 36 35 34 32 32 31 32 33 36 39
9 9 10 11 14 17 21 23 25 26 26 26 27 27 27 27 27 28 28 28 27 26 25 25 28 32 34 33 30 27 27 27 26 25 24 23 21 18 15 18 26 35 41 43 41 39 43 49 51 51 52 49 46 44 45 43 40 39 41 46 51 53 54 55 56 56 54 52 51 49 48 46 44 42 40 38 37 36 35 34 33 32 32 33 34 35
8 9 10 11 14 17 21 24 25 26 26 27 27 26 26 26 26 26 26 25 25 24 23 23 25 30 34 35 32 29 29 28 27 26 25 26 24 21 16 17 24 32 37 41 41 39 39 44 49 51 51 49 46 44 46 46 43 39 39 45 49 52 54 56 57 57 55 53 51 49 48 46 44 42 41 39 39 38 37 37 36 35 33 33 33 34
8 9 10 12 14 17 21 24 26 27 27 27 27 27 27 26 26 25 25 25 25 25 25 26 27 30 34 36 35 32 30 29 28 27 27 27 27 24 19 18 22 29 34 39 41 40 37 38 44 50 51 48 43 41 43 44 43 41 38 42 48 51 54 56 58 57 55 53 51 49 47 46 45 44 42 41 40 39 39 39 38 38 36 34 34 34
7 8 10 12 15 17 21 24 26 27 27 27 27 27 27 26 26 26 27 27 27 28 28 28 28 29 31 34 35 33 31 30 29 29 28 28 28 27 22 19 21 25 30 36 40 41 38 37 39 45 49 49 45 40 41 40 41 40 38 41 46 51 54 56 57 57 55 52 50 48 47 46 45 44 43 42 41 40 40 40 40 40 39 38 36 35
6 8 10 13 15 18 21 23 25 27 27 27 27 27 27 27 27 27 27 28 28 28 28 29 28 28 29 33 36 35 33 32 32 31 30 29 29 29 26 21 21 24 28 32 37 39 38 37 37 38 42 46 46 43 40 38 36 36 36 39 45 50 53 55 56 56 54 51 49 48 47 46 46 45 44 43 42 41 41 41 41 42 42 41 39 38
5 8 11 13 16 19 21 23 25 26 27 27 28 28 28 27 27 27 26 26 27 27 28 28 28 29 30 33 36 37 36 34 33 33 32 30 30 30 28 23 22 24 27 30 33 35 36 36 36 35 35 38 43 45 43 39 34 30 32 36 42 48 51 52 53 53 52 50 49 47 47 46 46 45 44 43 43 42 42 42 42 43 43 43 42 40
4 7 11 14 17 19 21 23 24 26 27 27 28 28 28 28 27 26 26 26 26 27 28 29 29 29 30 31 34 36 37 36 35 34 33 31 31 31 30 26 24 25 27 29 31 34 35 35 36 35 32 32 36 43 46 43 35 28 27 32 38 44 47 48 49 50 49 49 48 47 46 45 45 45 44 44 43 43 43 43 43 44 44 44 43 41
3 7 11 14 17 19 21 23 24 25 26 27 28 28 28 27 26 26 26 26 27 27 27 28 29 29 29 30 33 36 37 37 36 34 33 32 32 32 32 29 27 26 28 30 32 34 35 35 35 35 33 30 31 36 44 46 41 31 25 27 34 40 43 44 46 47 48 48 47 47 46 45 45 45 44 44 43 43 43 44 44 44 44 44 43 42
2 6 11 15 17 19 21 23 24 25 26 27 27 28 27 27 26 26 26 26 26 26 26 27 27 28 28 30 33 36 37 37 36 35 34 32 32 32 33 32 30 29 29 31 33 35 36 35 36 36 35 31 28 30 37 43 44 38 28 26 30 37 41 43 44 45 46 47 47 46 46 46 45 45 45 44 43 43 43 44 44 44 44 43 43 42
2 6 11 15 18 20 21 22 24 25 26 26 27 27 27 27 26 26 26 25 25 24 25 25 26 26 27 28 31 33 35 36 35 35 34 32 31 31 33 34 32 30 30 30 32 34 35 35 36 36 36 34 29 27 30 37 43 42 36 32 32 36 40 42 43 44 45 46 46 46 46 46 46 46 46 45 44 43 43 44 44 44 44 43 43 42
2 6 11 15 18 20 21 23 24 24 25 26 26 27 27 26 26 26 25 24 24 24 24 25 25 26 26 26 28 30 34 35 36 35 34 33 32 31 32 34 33 31 29 29 30 31 33 34 35 36 36 35 31 27 27 32 40 43 41 39 38 39 40 41 42 43 43 43 43 44 45 45 46 46 47 46 45 44 43 44 44 44 43 43 43 42
4 7 11 15 18 20 22 23 24 24 25 25 26 26 26 26 26 25 25 24 24 24 24 24 25 25 25 26 27 30 34 36 36 35 34 34 33 32 31 33 34 32 30 29 29 30 32 33 35 35 36 35 32 29 27 31 38 42 41 41 42 43 43 42 41 41 41 40 40 40 42 44 45 46 47 46 45 44 44 44 44 44 43 43 42 42
6 8 12 15 18 20 22 24 24 24 24 25 25 26 26 26 26 25 25 24 24 23 23 24 24 24 25 26 27 29 32 34 35 35 35 36 35 33 31 33 34 33 31 29 29 30 31 33 34 35 35 34 33 31 30 31 36 40 40 40 41 43 45 44 43 41 39 37 36 37 39 42 44 46 46 46 45 45 44 44 44 44 43 43 42 42
8 10 12 15 17 20 22 24 24 24 24 24 25 25 26 26 26 25 24 24 23 23 23 23 24 24 24 25 26 27 28 30 32 34 35 36 35 34 31 32 33 33 32 30 30 30 31 32 33 34 34 34 33 33 32 33 36 39 40 38 38 40 44 46 46 43 40 37 35 35 37 40 42 44 45 46 45 45 44 44 44 44 43 42 42 41
9 11 13 15 17 19 21 23 24 25 24 25 25 25 26 26 26 25 24 23 23 23 23 23 24 24 24 25 25 26 26 28 31 33 34 35 35 34 32 31 33 34 33 32 31 31 31 32 33 34 34 34 34 34 34 35 36 38 40 39 37 38 41 44 46 45 43 39 36 34 35 37 40 42 44 45 45 44 44 45 45 44 43 43 41 40
9 11 13 14 15 17 19 22 23 24 24 25 25 25 26 26 26 25 24 23 23 23 23 23 23 24 24 24 25 25 26 28 30 32 33 35 35 34 32 31 32 34 35 34 32 31 32 33 34 35 35 35 35 35 35 35 36 37 39 39 38 37 38 41 44 45 44 41 38 35 34 35 37 40 41 43 43 44 44 45 45 44 43 42 42 41
10 11 12 13 14 15 17 20 22 23 24 25 25 25 26 26 25 24 23 23 22 22 22 22 23 23 23 23 24 25 26 27 28 29 30 33 35 35 33 31 32 34 36 36 34 33 32 33 34 35 35 36 36 36 35 36 37 37 37 38 39 38 38 40 42 43 44 42 40 37 35 34 35 37 39 41 42 42 43 44 44 44 43 42 41 41
10 11 11 11 12 14 16 18 21 22 24 25 25 26 26 26 25 24 23 23 22 22 22 22 22 22 22 22 23 24 24 25 26 27 28 31 33 34 33 32 31 32 35 37 36 34 34 34 34 34 35 35 36 36 35 35 36 37 37 38 40 40 41 41 42 42 43 42 41 39 37 35 34 36 38 39 40 40 41 42 42 42 43 42 41 41
10 11 11 11 12 13 15 17 20 22 23 25 26 27 27 27 26 25 24 23 22 22 22 22 22 22 22 22 22 23 24 25 26 27 28 30 32 33 33 32 31 32 34 36 37 36 35 34 34 35 35 36 36 36 36 35 35 36 38 39 40 41 41 43 43 43 43 43 42 41 39 37 35 35 37 38 39 39 40 41 41 41 41 41 41 41
10 12 12 12 12 13 14 16 19 21 23 24 26 27 27 26 26 25 24 23 22 22 22 22 21 21 21 21 21 22 23 24 26 27 28 29 31 33 34 33 32 32 33 35 37 37 36 35 35 35 36 36 36 37 37 36 35 35 37 39 41 40 40 43 45 46 45 44 43 41 40 38 37 36 36 37 38 39 39 40 41 41 41 41 41 41
10 11 12 12 12 13 14 16 18 20 22 24 25 26 26 26 25 24 23 22 22 21 21 21 20 20 19 18 19 21 23 24 25 26 27 28 30 32 34 34 33 32 32 33 36 37 37 36 35 35 35 36 36 37 37 37 36 36 36 37 40 41 41 42 45 46 46 45 44 42 41 39 37 36 35 36 38 39 39 40 40 40 40 40 40 40
10 11 12 12 13 13 14 15 17 19 21 23 25 26 26 26 25 24 23 22 21 21 21 20 20 19 18 18 17 19 21 23 24 25 26 27 29 31 33 34 34 33 32 32 34 36 38 38 37 36 36 36 36 36 37 38 38 37 36 36 37 39 41 40 41 43 45 45 44 43 42 40 38 36 35 35 37 38 39 39 39 39 39 39 39 39
11 11 12 12 12 13 14 15 17 18 20 22 24 25 25 25 25 24 23 22 22 21 21 21 21 20 20 19 18 18 19 22 24 25 26 27 29 30 33 35 35 34 32 31 31 34 37 39 39 37 36 36 36 37 37 38 38 38 38 36 35 34 36 37 39 41 42 43 44 43 42 40 39 37 36 36 36 38 38 39 39 38 38 38 38 38
12 12 12 12 12 12 13 15 16 18 19 21 23 24 25 25 24 24 23 22 22 21 21 21 21 21 20 19 19 19 19 21 23 26 27 28 29 30 32 34 36 35 33 31 30 31 35 39 40 39 38 37 37 37 37 38 38 38 38 37 35 32 31 32 36 39 41 42 42 43 42 40 39 38 38 37 37 38 39 39 39 39 38 38 38 38
13 12 12 12 12 12 12 13 15 16 17 19 22 23 24 25 24 24 23 22 22 21 21 21 21 21 20 20 20 20 20 20 22 25 27 28 29 30 32 34 36 36 34 32 30 30 33 36 39 40 39 39 38 38 37 37 37 37 37 38 36 34 31 30 32 35 38 40 42 42 41 40 39 38 38 37 36 36 39 40 40 39 39 39 38 38
14 13 12 12 12 11 12 12 13 14 16 17 20 22 24 24 24 24 23 22 22 21 21 21 21 21 21 20 20 20 20 20 22 24 26 28 29 30 32 34 36 36 36 33 31 29 31 34 38 40 40 40 39 39 38 38 38 37 37 37 36 35 33 31 30 31 33 36 39 41 42 41 40 39 37 36 34 34 36 38 39 39 39 39 38 38
16 14 13 12 11 11 11 11 12 12 14 15 17 20 22 23 24 23 23 22 22 21 21 21 21 21 21 20 20 20 21 21 21 23 25 28 29 30 31 33 35 37 37 35 32 30 29 31 35 39 40 40 40 39 39 39 38 38 37 37 36 36 35 33 32 31 31 32 34 38 40 41 40 39 37 36 34 33 32 34 36 37 37 37 36 36
18 16 14 13 11 10 10 10 10 11 12 13 15 17 20 22 23 23 23 22 21 21 21 22 22 22 21 20 20 20 21 22 22 23 24 27 28 29 30 32 34 36 37 36 34 32 30 30 32 36 39 40 40 40 41 41 40 40 39 38 37 37 36 35 35 33 32 31 31 33 35 37 39 39 38 36 35 33 32 32 33 34 33 32 32 33
Wind_Direction
271 256 244 235 231 229 229 229 228 226 223 219 214 210 208 207 208 209 211 213 215 218 220 223 225 225 225 223 220 218 216 215 213 211 209 204 196 191 189 194 200 205 210 211 212 213 214 215 215 216 218 220 223 225 227 228 227 225 223 220 219 219 220 220 220 220 220 219 217 216 214 213 212 211 210 209 208 207 205 203 200 197 196 198 200 201
276 259 245 236 231 229 228 229 228 226 223 219 214 211 208 208 207 207 207 209 211 213 215 218 221 223 224 224 222 220 218 216 214 212 210 206 198 190 188 192 199 204 207 209 210 211 213 214 216 217 219 221 224 227 228 229 229 229 228 226 224 223 222 221 220 219 218 217 216 215 213 212 210 209 208 208 207 207 205 204 202 200 200 200 201 202
276 257 244 237 232 229 228 229 228 227 224 220 215 211 209 208 207 206 205 206 207 209 210 214 218 220 222 223 223 222 219 218 215 213 211 208 201 192 187 190 195 200 203 206 208 210 212 213 215 217 219 221 223 225 226 225 224 225 226 227 227 226 224 221 218 215 213 212 212 211 211 210 209 207 206 207 207 206 205 203 202 201 201 201 202 204
275 261 248 239 233 229 228 228 228 228 226 222 217 212 210 210 210 207 205 205 206 208 209 213 216 218 220 221 223 223 222 220 216 213 211 209 204 194 186 187 191 196 199 202 204 207 209 212 214 216 218 220 221 221 219 217 216 217 220 223 225 226 225 221 216 211 206 204 205 206 207 207 206 204 203 205 205 205 204 202 201 200 200 201 203 205
277 267 253 241 233 230 229 228 228 228 226 223 218 214 212 213 212 210 206 205 207 209 212 215 217 218 219 220 223 225 224 222 219 215 212 211 206 197 187 185 188 192 195 197 199 202 204 207 209 212 214 216 215 213 210 208 208 211 215 218 221 223 224 223 219 214 207 201 199 199 200 200 199 198 199 203 205 204 203 201 200 200 200 202 204 207
280 270 255 239 231 228 228 228 228 228 227 224 219 215 213 214 213 211 206 206 208 211 213 216 218 219 219 219 222 225 227 226 221 216 213 212 208 200 189 186 187 190 192 194 195 196 198 199 200 202 204 206 206 204 203 203 205 208 211 214 217 219 222 222 220 218 214 208 202 198 196 195 194 196 199 203 204 203 201 199 199 200 201 203 206 207
277 266 250 237 229 226 226 226 227 227 227 225 221 217 215 215 214 211 206 204 206 209 211 214 217 218 218 218 219 223 228 228 224 218 214 213 210 204 193 187 187 189 191 192 192 192 193 193 193 194 194 197 198 198 200 202 204 206 208 209 211 214 217 218 218 216 216 213 209 204 201 199 199 201 202 204 203 201 198 198 199 200 201 203 206 207
273 258 244 235 228 224 223 224 225 226 226 225 222 219 216 216 215 213 209 206 204 204 206 208 212 215 216 216 217 220 227 230 226 220 216 214 212 207 197 189 188 189 189 190 190 190 191 192 193 193 191 191 192 194 197 200 201 202 202 203 205 208 212 215 215 213 211 211 210 208 206 205 205 205 204 203 200 198 197 197 199 201 201 203 204 206
272 258 245 233 225 220 218 219 222 224 225 224 222 219 216 216 217 216 213 209 204 200 200 201 203 207 212 213 213 216 222 229 228 223 219 216 214 210 202 193 190 190 189 190 190 190 190 192 194 194 190 188 188 191 195 197 197 197 197 197 199 203 208 212 214 212 207 206 205 204 204 203 203 203 202 199 198 197 197 198 199 201 202 203 204 205
271 261 248 233 223 217 213 213 216 219 221 222 221 218 215 216 217 218 217 212 204 197 196 195 194 197 202 207 209 211 216 225 229 226 222 219 217 213 206 197 192 191 191 191 191 191 190 193 195 195 190 186 185 187 192 194 194 192 192 193 196 200 204 209 212 212 208 205 200 197 198 199 200 199 197 196 196 197 198 198 200 201 203 204 204 205
271 260 247 234 222 214 210 209 210 214 217 218 219 218 216 216 217 219 219 215 207 198 192 192 191 192 194 198 204 208 213 221 228 229 225 222 219 216 210 202 195 192 192 191 191 190 190 192 195 194 191 187 186 187 189 191 190 188 188 190 193 196 200 205 210 212 211 207 203 198 198 201 202 199 196 195 195 197 199 200 201 202 204 205 205 205
274 263 248 234 221 212 206 204 206 210 213 214 215 215 215 216 217 218 219 218 212 204 195 191 190 191 192 194 199 205 212 219 227 230 229 226 222 218 213 207 199 194 193 192 191 190 190 192 194 193 190 189 189 190 189 188 186 185 185 187 190 193 196 200 206 210 211 211 209 207 208 210 209 205 200 197 197 199 201 201 201 202 204 205 206 206
276 266 250 234 220 210 203 201 201 204 206 207 208 208 210 212 214 216 217 217 214 209 201 195 191 190 192 194 196 200 207 216 224 229 230 228 224 220 216 211 203 197 194 194 193 192 191 192 193 192 189 191 192 192 189 186 184 183 184 185 187 189 191 194 198 203 206 209 211 213 214 214 212 208 204 201 200 201 203 201 201 202 204 205 206 206
278 270 252 234 219 208 202 199 197 196 197 200 201 202 203 206 209 213 215 216 215 211 206 201 197 193 191 194 195 197 201 209 219 227 231 230 226 222 219 215 207 198 195 195 195 193 192 193 193 190 188 189 191 192 190 188 184 183 183 185 185 186 186 187 190 192 196 200 204 208 209 209 207 205 204 203 203 205 206 205 204 204 205 206 206 206
278 273 259 237 218 207 201 198 195 193 193 195 196 197 197 201 207 211 213 214 214 212 209 207 204 199 192 192 194 196 197 202 213 226 232 232 229 224 220 216 208 199 195 196 195 194 193 194 193 189 185 185 188 190 191 190 188 186 186 186 185 184 183 183 183 184 187 191 194 197 200 202 203 204 204 204 205 207 209 210 210 210 209 208 206 205
275 272 262 239 219 208 202 197 193 191 191 192 192 192 194 199 205 209 211 213 212 211 209 210 211 207 199 195 193 193 192 195 206 220 229 233 230 226 221 216 209 200 195 194 195 194 193 194 193 189 185 183 185 188 191 192 191 191 191 190 189 188 186 184 182 181 181 184 187 190 193 196 199 201 203 205 206 208 210 211 212 211 209 207 205 204
269 268 258 237 220 210 203 198 192 189 188 189 190 190 192 194 199 203 207 210 211 210 209 210 211 210 204 197 192 190 191 190 197 210 221 230 231 227 221 215 208 199 194 193 193 193 193 194 194 191 185 181 182 185 190 193 194 194 195 195 194 193 192 190 187 184 181 181 183 185 187 190 192 194 198 202 205 208 210 210 209 208 205 203 201 200
264 263 253 235 220 211 204 197 191 187 186 187 189 190 190 191 192 195 200 205 209 210 209 210 210 209 203 192 187 189 193 190 191 198 209 222 230 229 222 216 208 201 194 193 192 193 193 194 195 194 189 180 177 180 186 192 194 195 196 197 198 198 197 196 193 189 185 182 182 182 183 184 184 186 189 194 199 204 208 209 207 204 201 199 196 195
259 257 250 235 221 212 204 197 191 186 185 186 188 188 188 188 190 193 197 202 206 208 208 209 209 208 202 194 187 187 191 189 189 193 199 211 225 229 224 217 210 204 196 192 191 192 192 193 194 194 192 183 176 175 181 188 193 196 196 198 199 199 199 197 195 191 188 185 183 182 181 181 181 182 183 185 190 195 201 205 205 203 200 196 193 191
252 251 247 235 221 211 205 198 191 186 185 185 186 187 187 187 189 191 195 200 205 207 207 206 206 205 202 197 190 185 185 185 186 189 195 203 216 224 222 216 211 206 200 193 191 191 191 191 193 193 190 183 174 171 175 182 189 194 197 198 199 200 199 197 195 193 191 188 186 184 182 182 181 181 182 182 184 186 190 194 197 198 198 195 192 190
245 246 244 232 220 211 205 199 192 187 185 185 185 187 188 188 188 189 192 196 202 206 207 205 205 204 202 198 189 182 181 182 183 187 194 199 210 222 224 217 212 208 203 197 193 191 191 191 192 192 189 182 173 167 169 175 183 191 196 198 199 199 199 197 195 194 192 191 189 187 185 184 184 184 183 183 184 185 186 187 187 188 188 188 188 190
241 241 238 229 219 211 205 199 193 189 186 185 186 187 187 188 189 189 191 195 200 204 205 204 204 204 203 199 191 184 180 180 182 186 191 197 209 225 232 221 213 209 207 202 196 192 191 191 192 191 187 180 172 165 165 170 177 186 192 196 198 199 198 197 196 195 194 193 191 189 188 187 187 187 186 186 187 188 188 188 187 186 185 185 187 190
239 237 233 227 218 210 204 199 194 190 187 186 186 186 187 188 189 190 192 195 199 202 202 202 202 203 203 201 196 189 183 181 181 183 187 194 205 218 230 224 215 210 209 206 200 194 192 191 191 191 189 181 171 165 163 167 172 180 187 193 196 198 198 197 196 195 194 193 192 191 189 189 188 188 189 189 190 191 192 192 191 189 188 187 189 191
238 233 229 224 216 208 203 199 195 192 189 188 186 186 186 187 189 190 192 195 197 199 199 199 200 201 201 200 196 191 185 181 178 178 182 190 198 207 216 219 214 211 210 208 203 198 193 191 191 191 190 185 175 166 164 167 170 175 183 190 194 196 197 197 196 196 195 193 192 190 190 189 189 189 190 191 192 193 194 194 194 194 192 190 190 192
237 230 225 219 212 206 202 199 196 193 191 188 186 185 185 186 188 189 191 192 193 194 193 194 196 198 200 198 195 190 184 180 177 175 179 184 191 198 206 212 211 209 209 209 207 202 196 193 191 190 190 189 181 171 166 166 168 172 179 188 192 193 195 196 196 195 194 192 191 190 189 189 189 190 191 192 193 195 195 195 196 197 196 193 193 194
234 226 220 215 210 205 201 198 196 194 192 189 186 185 184 185 185 186 187 188 189 189 189 191 194 197 198 197 195 191 184 179 175 175 177 181 186 192 200 205 207 207 208 210 210 207 203 198 195 193 193 192 186 176 168 164 164 168 175 183 188 190 192 193 194 194 193 191 190 189 189 189 190 191 192 193 194 195 196 197 197 198 198 196 196 197
229 221 215 211 207 204 200 197 195 194 192 190 187 185 184 184 184 185 185 186 186 186 187 188 191 195 197 195 193 190 184 178 175 175 177 180 185 190 193 195 198 203 206 209 211 210 208 205 202 199 198 198 195 187 176 167 162 164 171 179 185 187 189 191 192 192 191 189 188 188 188 189 190 191 192 193 195 196 197 198 198 199 200 199 199 200
224 215 210 208 205 202 199 196 194 193 192 190 188 186 185 185 185 185 185 186 185 185 185 185 187 190 193 193 191 189 184 179 176 175 177 179 184 188 190 186 189 197 202 205 208 209 209 208 207 206 204 203 201 197 188 177 168 164 169 176 182 184 186 188 189 189 188 188 187 188 188 189 190 191 192 193 195 196 198 199 200 201 201 202 202 203
216 208 205 203 202 201 199 196 193 191 190 189 188 187 187 187 187 186 186 185 185 184 184 184 186 190 192 192 191 189 187 183 180 176 175 177 182 186 187 180 182 191 198 199 201 204 206 207 208 208 207 206 205 202 196 188 178 170 170 175 179 182 183 184 185 186 187 187 187 188 188 189 190 191 192 194 195 197 198 200 201 202 203 204 204 205
206 203 201 200 200 199 198 196 194 191 189 189 189 188 188 188 187 186 185 185 185 185 184 184 187 190 193 193 192 190 190 188 183 178 175 175 178 181 182 178 180 186 192 194 196 199 202 205 206 208 208 207 205 202 199 195 188 179 173 175 177 179 180 181 182 184 185 186 187 188 189 190 191 192 193 194 195 197 199 201 202 203 204 204 205 206
197 197 198 197 197 197 197 196 194 192 190 189 189 190 190 189 187 185 184 185 186 185 184 185 187 190 192 190 190 191 193 191 185 179 176 175 174 175 178 177 178 181 187 191 193 197 200 203 204 206 208 208 206 202 200 198 195 189 178 175 176 178 179 180 181 183 184 186 187 188 189 190 191 192 194 194 196 197 199 201 202 204 204 205 206 206
182 188 193 195 194 194 194 195 194 193 192 191 191 191 190 189 187 185 185 186 186 185 185 185 188 190 191 189 190 192 194 192 187 181 177 176 173 173 176 176 176 178 183 189 193 196 199 201 203 205 208 210 209 205 201 200 199 194 183 177 177 179 180 180 181 182 183 185 187 188 190 191 192 193 194 195 196 197 199 200 202 203 204 205 206 206
171 181 189 192 192 192 192 192 193 193 193 193 193 192 190 188 187 186 186 185 185 184 185 186 188 189 191 192 193 193 193 193 189 184 180 176 173 172 175 177 177 179 182 188 194 198 199 202 203 206 208 210 212 210 205 202 199 195 187 180 179 180 180 180 180 181 182 184 186 187 189 190 192 193 194 195 196 197 198 200 201 203 204 205 205 206
164 175 185 190 191 190 189 190 191 192 193 193 192 191 189 188 186 185 184 183 183 184 184 185 186 188 189 191 192 193 192 193 192 188 182 179 176 174 175 177 180 181 183 187 193 197 200 202 204 206 207 210 212 212 208 202 198 193 187 183 182 183 181 179 179 179 180 182 184 186 188 190 191 192 193 194 195 197 198 199 201 202 203 204 205 206
143 164 180 189 191 190 188 188 188 189 190 191 190 189 187 185 183 182 181 181 182 183 183 184 185 185 186 187 189 190 191 192 193 191 185 182 179 176 175 178 182 184 184 186 190 193 196 200 202 204 205 206 208 209 207 201 196 191 185 183 184 185 184 181 179 178 178 179 181 185 187 189 190 191 192 193 194 196 197 198 200 201 203 204 205 206
130 155 175 187 190 189 187 186 186 187 188 188 187 186 184 182 180 179 179 180 180 181 181 182 183 184 185 186 188 189 191 192 193 193 189 186 183 179 177 179 182 184 185 186 188 191 194 196 199 200 201 202 203 204 202 199 195 190 185 182 183 185 186 185 183 181 179 178 180 183 186 188 189 190 191 192 194 195 196 198 199 201 202 203 204 205
126 151 171 184 189 188 186 185 185 185 185 184 183 182 180 179 177 177 177 177 178 178 179 180 182 183 185 187 188 189 190 191 192 194 194 191 187 182 179 179 182 184 185 186 188 190 192 194 196 198 199 200 201 201 199 196 193 190 186 183 183 184 185 186 185 184 183 181 180 182 185 188 189 190 191 192 193 194 196 197 199 200 201 202 203 204
123 148 167 181 187 187 186 184 183 183 182 182 181 179 177 176 175 174 175 175 176 177 177 178 180 182 185 186 187 187 186 188 191 194 196 195 191 186 182 179 181 185 186 186 188 189 191 193 195 197 198 199 200 200 199 196 194 190 187 185 185 185 185 185 185 185 185 183 182 182 184 187 189 191 191 192 193 195 196 197 198 199 200 201 202 203
117 141 161 175 183 185 184 184 183 182 181 180 178 176 175 174 173 172 173 174 175 175 176 177 179 181 184 185 185 185 184 186 189 192 195 195 193 189 185 180 180 183 186 187 187 188 190 192 194 196 197 198 199 200 200 199 197 193 189 187 187 187 187 186 186 186 185 184 182 181 182 185 188 190 192 193 194 195 197 198 198 199 199 200 201 202
111 134 154 168 176 180 181 182 181 180 179 177 176 174 172 171 171 171 171 172 173 174 175 176 178 180 183 185 185 185 185 185 187 189 191 194 194 192 187 182 179 179 183 186 188 189 190 193 194 196 197 198 199 199 200 200 200 197 192 189 189 190 190 189 188 187 186 184 182 180 180 182 186 189 192 193 195 196 197 198 199 199 200 200 201 201
113 132 148 162 169 173 175 177 178 178 177 175 174 172 171 170 169 169 170 170 171 172 173 175 177 180 182 184 185 185 185 185 185 186 189 192 194 193 189 185 180 177 179 184 187 189 190 192 194 195 197 199 200 200 200 201 201 199 196 193 191 191 192 192 191 190 188 186 183 181 180 181 184 188 191 193 194 196 197 199 200 200 201 201 202 202
121 134 147 156 162 166 169 172 174 175 175 174 173 172 170 169 168 168 168 168 169 170 172 174 176 179 182 184 185 185 185 184 185 186 188 190 193 193 191 187 182 177 176 180 185 189 191 192 193 194 196 198 200 201 201 201 201 200 199 198 196 193 192 193 193 193 191 188 186 183 181 181 183 188 191 193 194 195 197 198 200 200 201 202 203 203
124 136 145 151 156 160 164 168 171 173 174 174 173 172 170 169 169 168 167 168 168 169 171 173 175 178 181 183 184 184 184 185 186 187 187 189 191 193 192 189 185 179 175 176 181 187 191 191 192 194 196 197 199 200 201 201 201 201 201 202 201 198 194 193 193 194 193 191 188 185 182 181 183 186 191 193 195 196 197 198 199 200 201 202 202 203
124 134 141 146 151 156 160 164 168 171 173 174 173 173 171 171 170 169 169 168 168 169 170 171 173 176 178 180 182 183 184 185 186 187 187 188 190 192 193 192 188 183 178 174 176 183 189 192 193 194 195 196 198 199 201 202 202 201 201 203 205 204 200 195 193 193 193 193 190 187 184 182 182 184 189 193 196 197 198 199 200 200 201 202 202 203
121 131 137 142 147 151 155 160 165 169 172 174 174 174 174 173 172 172 171 169 169 168 168 169 171 173 174 175 177 180 182 183 185 186 187 188 190 192 193 193 191 188 183 177 176 179 185 190 194 195 195 196 196 198 199 201 203 203 202 203 205 207 205 200 195 193 193 193 192 190 187 184 182 182 185 191 195 198 199 199 200 200 201 202 202 203
112 124 133 139 143 148 152 157 162 167 171 174 176 177 177 176 175 174 173 172 171 170 169 170 171 171 171 170 172 175 178 181 182 184 186 187 189 191 193 194 194 191 188 183 178 177 182 188 192 195 195 195 196 197 197 200 202 203 204 203 204 206 206 203 200 197 195 195 195 193 191 187 185 183 184 188 193 197 199 200 200 200 201 201 201 202
101 113 124 131 138 143 149 154 160 165 170 174 177 179 179 179 178 177 176 174 174 173 172 172 172 172 170 169 169 171 175 178 181 182 183 185 187 190 193 195 195 194 191 188 182 178 179 185 190 193 195 196 196 196 196 198 200 203 204 205 205 205 205 204 203 201 200 199 198 197 195 191 189 187 186 188 191 194 197 198 199 200 200 200 200 200
93 104 114 122 129 135 142 148 155 162 168 173 178 181 182 181 181 180 179 177 176 175 175 175 174 173 171 170 171 172 174 177 179 181 182 184 186 189 191 194 196 196 194 192 186 181 179 182 187 192 194 196 197 197 196 196 198 201 204 206 207 206 206 205 204 203 203 203 202 201 200 197 194 192 190 190 192 194 196 196 197 198 198 199 199 199
84 96 106 114 121 127 133 140 148 156 163 171 177 182 184 184 183 183 182 180 178 177 177 176 175 173 172 172 173 173 174 176 179 181 182 183 185 188 191 194 195 196 197 195 192 186 180 180 184 189 193 195 197 198 197 197 197 199 201 204 206 207 207 207 206 204 204 204 204 204 204 202 200 197 195 193 194 197 199 197 196 195 196 196 196 197
74 85 96 105 114 121 127 134 141 149 157 166 174 180 185 186 186 186 185 183 182 180 178 177 176 175 174 173 173 174 174 176 179 182 184 184 185 187 190 193 195 197 198 198 196 191 184 180 181 186 190 194 197 199 199 198 198 197 199 201 203 205 206 207 207 206 205 204 204 204 205 204 204 202 201 198 198 200 204 202 197 193 193 193 194 195
65 74 84 93 103 113 122 131 138 144 151 160 169 177 183 186 188 188 187 186 184 182 180 178 177 176 175 175 175 175 176 177 179 183 186 185 185 187 189 193 195 197 199 200 199 196 190 184 181 183 186 190 195 198 200 200 199 198 197 198 199 201 203 205 207 208 208 207 205 205 204 205 205 205 206 204 202 202 207 207 201 196 196 195 194 194
Height
2870 2870 2870 2870 2870 2871 2871 2871 2872 2873 2874 2876 2878 2880 2882 2884 2887 2889 2891 2893 2895 2896 2898 2899 2901 2903 2906 2909 2911 2914 2918 2922 2926 2930 2933 2935 2938 2940 2943 2947 2952 2956 2960 2963 2967 2971 2974 2977 2980 2983 2985 2987 2989 2992 2994 2997 2999 3002 3005 3008 3011 3014 3016 3019 3021 3023 3026 3029 3032 3036 3039 3042 3044 3047 3049 3053 3056 3059 3062 3065 3068 3070 3074 3077 3079 3082
2869 2869 2869 2869 2869 2869 2869 2870 2870 2872 2873 2874 2876 2878 2880 2883 2885 2888 2889 2892 2893 2894 2896 2898 2899 2902 2904 2906 2909 2912 2915 2919 2923 2927 2930 2933 2935 2937 2940 2944 2949 2954 2958 2961 2964 2968 2972 2975 2978 2980 2983 2985 2988 2990 2993 2995 2997 2999 3003 3006 3009 3012 3015 3017 3019 3021 3023 3025 3029 3032 3035 3039 3041 3044 3046 3049 3052 3055 3059 3062 3065 3069 3073 3074 3076 3079
2868 2868 2868 2868 2868 2868 2868 2869 2869 2870 2871 2873 2875 2877 2879 2881 2884 2886 2888 2890 2891 2893 2894 2896 2898 2900 2902 2904 2906 2909 2913 2916 2920 2924 2928 2930 2932 2934 2938 2942 2948 2952 2956 2959 2962 2966 2969 2973 2976 2978 2981 2984 2986 2989 2991 2994 2995 2997 3000 3003 3007 3010 3013 3015 3017 3019 3020 3023 3026 3029 3031 3035 3038 3041 3044 3046 3049 3052 3055 3059 3062 3065 3068 3071 3074 3077
2867 2867 2866 2866 2866 2867 2867 2867 2868 2869 2870 2872 2874 2876 2878 2880 2882 2884 2886 2887 2889 2891 2893 2894 2897 2899 2901 2903 2905 2908 2910 2914 2917 2922 2925 2927 2929 2932 2935 2940 2946 2950 2954 2958 2961 2964 2968 2971 2974 2977 2979 2982 2984 2987 2990 2992 2994 2995 2998 3001 3004 3008 3011 3014 3016 3017 3019 3021 3024 3026 3029 3032 3035 3038 3041 3043 3045 3049 3052 3055 3059 3063 3066 3069 3072 3076
2866 2865 2865 2865 2865 2865 2865 2866 2867 2868 2869 2871 2873 2875 2877 2878 2879 2882 2884 2886 2888 2890 2892 2894 2895 2898 2900 2902 2904 2906 2909 2911 2915 2919 2922 2925 2927 2930 2933 2938 2943 2948 2951 2956 2959 2963 2966 2969 2972 2974 2977 2979 2983 2985 2988 2990 2991 2994 2996 2999 3002 3005 3009 3012 3014 3016 3017 3020 3023 3025 3027 3030 3033 3035 3038 3040 3043 3046 3050 3053 3057 3060 3064 3067 3070 3074
2864 2864 2864 2864 2864 2864 2864 2865 2866 2867 2868 2870 2871 2873 2874 2876 2878 2880 2884 2886 2888 2890 2891 2893 2895 2897 2899 2901 2903 2905 2907 2909 2913 2917 2920 2922 2925 2928 2931 2936 2941 2945 2950 2954 2958 2961 2964 2968 2970 2972 2974 2977 2980 2983 2986 2987 2989 2992 2995 2998 3000 3003 3006 3009 3012 3014 3016 3019 3021 3024 3026 3028 3030 3033 3035 3038 3041 3045 3048 3052 3055 3059 3062 3066 3069 3072
2863 2863 2863 2863 2863 2863 2864 2864 2864 2865 2867 2868 2869 2871 2873 2875 2877 2880 2883 2885 2887 2889 2891 2892 2894 2896 2898 2900 2903 2904 2906 2908 2911 2914 2918 2920 2923 2926 2929 2934 2939 2944 2949 2953 2956 2959 2963 2966 2969 2970 2972 2975 2979 2981 2983 2985 2987 2990 2994 2996 2999 3001 3004 3007 3009 3012 3015 3017 3019 3021 3023 3026 3028 3030 3034 3037 3040 3043 3046 3050 3054 3058 3061 3064 3068 3070
2862 2862 2862 2862 2862 2862 2863 2863 2864 2864 2865 2866 2868 2870 2873 2874 2876 2878 2880 2883 2885 2887 2889 2892 2893 2895 2897 2900 2902 2904 2905 2907 2909 2913 2915 2918 2920 2924 2927 2932 2938 2943 2947 2951 2954 2958 2961 2965 2967 2969 2971 2974 2977 2979 2981 2984 2986 2989 2992 2994 2997 2999 3002 3004 3007 3010 3013 3015 3016 3018 3020 3024 3027 3029 3032 3035 3039 3042 3045 3049 3053 3056 3059 3063 3066 3069
2861 2861 2861 2861 2861 2861 2861 2862 2862 2863 2864 2865 2867 2869 2872 2874 2875 2876 2879 2881 2884 2886 2889 2891 2892 2894 2896 2899 2901 2904 2905 2907 2908 2911 2913 2916 2918 2922 2926 2931 2936 2940 2944 2948 2952 2956 2960 2963 2966 2968 2969 2972 2974 2977 2979 2982 2984 2987 2990 2992 2995 2998 3000 3003 3004 3007 3011 3014 3015 3016 3019 3022 3025 3029 3031 3034 3038 3041 3044 3048 3051 3055 3058 3061 3065 3068
2860 2860 2860 2860 2860 2860 2860 2861 2861 2862 2863 2864 2866 2868 2870 2872 2874 2875 2878 2880 2882 2885 2887 2889 2891 2893 2895 2897 2900 2903 2904 2906 2907 2909 2911 2913 2916 2919 2924 2929 2934 2938 2942 2946 2950 2954 2958 2961 2964 2966 2967 2969 2972 2975 2978 2980 2983 2985 2987 2990 2993 2996 2999 3001 3003 3005 3009 3012 3014 3016 3019 3021 3024 3027 3030 3033 3037 3040 3044 3047 3050 3053 3057 3060 3063 3066
2859 2859 2859 2859 2859 2859 2859 2860 2860 2861 2862 2864 2865 2867 2869 2871 2873 2874 2877 2879 2881 2883 2885 2888 2889 2891 2894 2896 2899 2901 2903 2904 2905 2907 2909 2911 2914 2918 2922 2927 2931 2935 2940 2944 2949 2953 2956 2960 2963 2964 2965 2967 2970 2974 2977 2979 2981 2983 2985 2988 2991 2994 2997 2999 3002 3004 3006 3009 3012 3014 3018 3021 3024 3026 3029 3032 3036 3039 3042 3045 3049 3052 3055 3058 3061 3064
2858 2858 2858 2858 2858 2858 2859 2859 2860 2861 2862 2863 2865 2867 2869 2871 2872 2874 2875 2877 2879 2882 2884 2886 2888 2890 2893 2895 2898 2900 2902 2903 2904 2905 2907 2909 2912 2916 2921 2926 2930 2934 2938 2942 2946 2950 2954 2958 2961 2963 2964 2966 2969 2972 2975 2978 2980 2982 2984 2987 2989 2992 2995 2998 3000 3002 3004 3007 3009 3012 3015 3019 3023 3025 3028 3031 3035 3038 3041 3044 3047 3050 3053 3056 3059 3063
2857 2857 2857 2857 2857 2858 2858 2859 2859 2860 2861 2863 2864 2865 2867 2869 2870 2872 2874 2876 2878 2880 2883 2885 2887 2889 2891 2893 2895 2898 2900 2901 2903 2904 2905 2908 2911 2915 2919 2924 2929 2933 2937 2940 2944 2948 2952 2956 2959 2960 2963 2964 2967 2971 2974 2977 2979 2982 2984 2986 2989 2991 2994 2996 2999 3001 3003 3006 3009 3012 3015 3019 3021 3024 3026 3029 3033 3036 3039 3042 3045 3048 3051 3054 3058 3061
2856 2856 2856 2856 2856 2857 2857 2858 2858 2859 2860 2861 2862 2863 2864 2866 2869 2871 2873 2876 2878 2880 2882 2884 2886 2888 2889 2892 2894 2896 2898 2900 2901 2903 2904 2906 2909 2913 2918 2923 2926 2930 2935 2939 2942 2946 2949 2953 2957 2959 2961 2963 2966 2969 2973 2975 2977 2980 2983 2986 2988 2990 2993 2995 2998 3000 3003 3006 3009 3012 3015 3018 3020 3022 3025 3028 3032 3035 3037 3040 3043 3046 3049 3052 3055 3059
2855 2855 2855 2855 2855 2856 2856 2857 2858 2858 2859 2860 2861 2863 2865 2867 2869 2871 2873 2875 2877 2879 2882 2883 2885 2886 2888 2890 2892 2894 2896 2899 2901 2903 2904 2906 2908 2911 2916 2921 2925 2928 2933 2936 2940 2944 2947 2951 2955 2958 2959 2961 2964 2967 2970 2973 2975 2978 2981 2985 2988 2990 2993 2995 2998 3001 3003 3006 3009 3012 3015 3018 3020 3022 3024 3027 3030 3033 3036 3039 3041 3044 3047 3050 3053 3056
2854 2854 2854 2854 2854 2855 2856 2856 2857 2858 2859 2860 2861 2863 2865 2867 2869 2870 2872 2873 2875 2878 2881 2883 2884 2886 2888 2889 2891 2893 2896 2898 2901 2902 2904 2905 2907 2910 2915 2920 2924 2927 2930 2934 2938 2941 2945 2950 2954 2956 2957 2959 2962 2965 2968 2971 2974 2976 2980 2983 2986 2989 2992 2995 2998 3001 3003 3006 3009 3011 3014 3017 3019 3021 3023 3025 3028 3031 3033 3036 3038 3040 3043 3046 3050 3054
2853 2853 2853 2853 2854 2854 2855 2856 2856 2857 2858 2859 2860 2862 2863 2864 2866 2868 2870 2872 2874 2877 2879 2881 2883 2884 2886 2888 2890 2893 2895 2898 2900 2902 2903 2904 2906 2909 2914 2919 2922 2925 2928 2931 2935 2939 2944 2948 2952 2954 2955 2958 2960 2963 2966 2969 2971 2975 2978 2981 2984 2988 2991 2994 2997 3000 3003 3005 3008 3010 3013 3016 3018 3020 3022 3024 3027 3029 3032 3034 3036 3038 3040 3043 3046 3050
2852 2852 2852 2853 2853 2854 2854 2855 2856 2857 2857 2858 2859 2860 2861 2863 2865 2867 2869 2871 2874 2876 2878 2880 2881 2883 2885 2888 2891 2894 2896 2898 2899 2902 2904 2905 2906 2909 2913 2917 2920 2923 2925 2929 2933 2938 2942 2947 2950 2952 2954 2956 2959 2961 2964 2967 2970 2973 2976 2979 2983 2986 2989 2992 2995 2999 3002 3005 3008 3010 3012 3015 3017 3019 3021 3024 3026 3029 3031 3033 3035 3037 3039 3040 3043 3047
2851 2852 2852 2852 2852 2853 2854 2854 2855 2856 2856 2857 2859 2860 2862 2864 2866 2868 2869 2870 2872 2874 2877 2879 2881 2883 2885 2888 2890 2893 2895 2897 2899 2902 2904 2905 2906 2908 2912 2916 2919 2922 2924 2928 2932 2936 2941 2945 2948 2951 2954 2955 2956 2959 2963 2966 2968 2971 2974 2978 2981 2984 2988 2991 2994 2997 3000 3004 3007 3009 3012 3014 3016 3018 3020 3023 3025 3028 3030 3032 3033 3035 3036 3038 3041 3045
2850 2851 2851 2851 2851 2852 2853 2854 2854 2855 2855 2856 2858 2859 2861 2863 2864 2866 2868 2869 2871 2873 2875 2879 2881 2884 2886 2888 2890 2893 2895 2897 2899 2901 2903 2904 2906 2907 2910 2914 2917 2920 2924 2927 2930 2934 2938 2943 2946 2949 2951 2953 2954 2957 2961 2964 2966 2969 2973 2976 2979 2983 2986 2989 2992 2996 2999 3002 3005 3008 3011 3014 3016 3019 3020 3023 3025 3027 3029 3031 3032 3034 3035 3037 3040 3044
2849 2850 2850 2850 2851 2851 2852 2853 2854 2854 2855 2856 2858 2859 2860 2862 2863 2865 2867 2868 2870 2873 2875 2879 2881 2883 2884 2887 2890 2892 2894 2897 2899 2901 2903 2904 2905 2906 2908 2911 2915 2919 2922 2925 2928 2932 2936 2940 2944 2946 2949 2950 2951 2954 2958 2961 2964 2968 2971 2974 2978 2981 2984 2987 2990 2994 2997 3000 3004 3006 3009 3012 3015 3018 3020 3022 3024 3026 3029 3030 3032 3034 3035 3038 3042 3045
2849 2849 2849 2849 2850 2850 2851 2852 2853 2854 2855 2856 2857 2858 2859 2861 2863 2864 2866 2868 2870 2872 2874 2877 2879 2881 2883 2885 2888 2890 2893 2895 2898 2900 2902 2903 2904 2904 2905 2909 2913 2917 2921 2924 2927 2931 2935 2939 2942 2944 2947 2948 2949 2951 2954 2959 2963 2967 2970 2973 2976 2980 2983 2986 2989 2992 2995 2998 3001 3004 3007 3010 3013 3016 3019 3021 3023 3025 3028 3030 3032 3034 3036 3039 3042 3046
2848 2848 2848 2849 2849 2850 2851 2852 2853 2854 2854 2855 2856 2857 2859 2860 2862 2864 2866 2867 2869 2870 2872 2874 2877 2879 2882 2884 2886 2888 2890 2893 2896 2899 2900 2901 2902 2902 2904 2908 2913 2917 2920 2923 2927 2930 2934 2937 2940 2943 2945 2946 2947 2948 2952 2956 2961 2965 2969 2971 2974 2978 2981 2984 2987 2990 2993 2996 2999 3002 3005 3008 3011 3014 3017 3020 3022 3024 3027 3029 3032 3034 3037 3039 3042 3045
2847 2847 2847 2848 2849 2849 2850 2851 2852 2853 2854 2855 2856 2857 2859 2860 2862 2863 2864 2866 2868 2870 2872 2874 2877 2879 2882 2884 2885 2887 2889 2891 2894 2896 2898 2899 2900 2901 2904 2908 2912 2916 2919 2923 2926 2929 2932 2935 2938 2942 2945 2946 2946 2947 2951 2954 2959 2964 2967 2970 2973 2976 2979 2982 2985 2989 2991 2994 2997 3000 3003 3006 3009 3012 3015 3018 3021 3024 3026 3029 3031 3034 3036 3039 3042 3044
2846 2846 2847 2847 2848 2849 2849 2851 2852 2853 2853 2854 2856 2857 2859 2860 2862 2864 2865 2867 2869 2871 2873 2875 2877 2879 2880 2882 2883 2885 2887 2889 2892 2894 2897 2899 2900 2902 2904 2908 2912 2915 2919 2922 2924 2927 2930 2933 2937 2940 2944 2946 2946 2948 2950 2953 2956 2961 2966 2969 2972 2974 2977 2980 2983 2987 2989 2992 2995 2998 3001 3004 3007 3010 3013 3016 3019 3022 3025 3028 3030 3033 3035 3038 3041 3044
2845 2846 2846 2846 2847 2848 2849 2850 2851 2852 2853 2854 2855 2857 2859 2860 2862 2863 2865 2867 2869 2870 2872 2874 2875 2876 2877 2879 2882 2884 2886 2889 2891 2894 2897 2899 2901 2902 2905 2908 2911 2914 2918 2921 2924 2926 2929 2932 2935 2939 2942 2944 2946 2948 2949 2951 2954 2959 2964 2968 2970 2973 2975 2978 2981 2985 2988 2990 2993 2996 2999 3002 3005 3009 3012 3015 3018 3021 3023 3026 3029 3032 3034 3037 3040 3043
2845 2845 2845 2845 2846 2847 2848 2849 2850 2852 2853 2854 2855 2856 2858 2859 2861 2862 2864 2865 2867 2869 2870 2872 2874 2875 2877 2879 2882 2884 2887 2889 2892 2895 2898 2900 2902 2903 2905 2908 2911 2914 2917 2920 2923 2926 2929 2931 2934 2938 2940 2943 2946 2948 2949 2951 2952 2956 2962 2966 2969 2971 2974 2977 2980 2983 2986 2988 2991 2994 2997 3000 3004 3007 3010 3013 3016 3019 3022 3025 3028 3030 3033 3035 3039 3041
2844 2844 2844 2845 2845 2846 2847 2849 2850 2851 2852 2854 2855 2856 2858 2859 2860 2862 2863 2864 2866 2868 2870 2872 2874 2876 2878 2880 2883 2885 2887 2890 2892 2895 2898 2901 2903 2904 2905 2908 2911 2914 2917 2919 2923 2926 2929 2931 2934 2936 2939 2942 2945 2948 2949 2950 2951 2954 2959 2964 2966 2969 2971 2974 2978 2981 2984 2986 2989 2993 2995 2999 3002 3005 3009 3012 3015 3018 3020 3023 3026 3029 3031 3034 3036 3039
2843 2844 2844 2844 2845 2845 2847 2848 2849 2851 2852 2853 2854 2856 2857 2859 2860 2861 2863 2865 2867 2869 2871 2873 2874 2876 2877 2879 2881 2884 2887 2889 2892 2894 2898 2901 2903 2904 2905 2908 2911 2914 2916 2919 2922 2926 2929 2931 2933 2936 2938 2941 2944 2947 2949 2950 2951 2953 2955 2961 2964 2966 2969 2972 2975 2978 2981 2985 2988 2991 2994 2997 3000 3004 3007 3010 3014 3016 3019 3022 3024 3027 3029 3032 3034 3036
2843 2843 2843 2844 2844 2845 2846 2848 2849 2850 2852 2853 2854 2855 2857 2858 2859 2861 2863 2865 2867 2868 2870 2872 2874 2875 2877 2879 2881 2884 2887 2889 2891 2894 2897 2900 2903 2904 2905 2907 2910 2913 2916 2918 2922 2925 2929 2930 2933 2935 2937 2940 2942 2945 2948 2950 2952 2952 2954 2959 2962 2964 2966 2969 2973 2977 2980 2983 2986 2989 2993 2996 2999 3002 3006 3009 3012 3015 3018 3020 3022 3024 3027 3029 3032 3034
2843 2843 2843 2843 2844 2845 2846 2847 2849 2850 2851 2852 2854 2855 2856 2858 2860 2862 2863 2864 2866 2867 2869 2872 2874 2875 2877 2879 2882 2884 2885 2887 2890 2893 2896 2899 2902 2904 2906 2907 2909 2912 2915 2918 2921 2924 2927 2929 2932 2934 2936 2938 2941 2944 2946 2949 2951 2952 2953 2956 2960 2963 2965 2968 2971 2975 2978 2982 2985 2988 2991 2994 2998 3001 3004 3008 3010 3013 3016 3018 3020 3022 3025 3027 3030 3033
2842 2842 2843 2843 2844 2844 2846 2847 2848 2850 2851 2852 2854 2855 2856 2858 2859 2861 2862 2864 2865 2867 2869 2872 2873 2875 2877 2879 2880 2882 2883 2886 2889 2892 2895 2898 2901 2904 2906 2907 2909 2911 2914 2916 2919 2922 2925 2927 2930 2932 2934 2937 2939 2942 2945 2948 2951 2952 2953 2955 2958 2961 2964 2967 2970 2974 2977 2980 2983 2987 2990 2993 2996 2999 3003 3006 3009 3011 3014 3016 3018 3020 3023 3026 3029 3031
2842 2842 2842 2843 2844 2844 2845 2847 2848 2849 2851 2852 2853 2854 2856 2858 2859 2860 2862 2864 2866 2868 2869 2871 2873 2875 2877 2878 2879 2881 2884 2887 2889 2892 2894 2897 2900 2904 2906 2907 2908 2910 2913 2915 2918 2921 2924 2926 2928 2931 2933 2935 2938 2941 2944 2946 2949 2952 2953 2954 2957 2960 2963 2966 2969 2972 2975 2979 2982 2985 2988 2991 2994 2998 3001 3004 3007 3009 3012 3014 3016 3018 3021 3024 3027 3029
2842 2842 2842 2843 2843 2844 2845 2846 2848 2849 2850 2852 2853 2854 2856 2857 2859 2860 2862 2864 2866 2867 2869 2870 2872 2874 2876 2878 2880 2883 2885 2887 2889 2891 2894 2896 2899 2902 2905 2907 2908 2909 2912 2914 2918 2921 2924 2927 2929 2931 2933 2935 2938 2940 2943 2946 2949 2951 2952 2954 2956 2959 2962 2965 2968 2971 2974 2977 2980 2984 2987 2989 2993 2996 2999 3002 3005 3008 3010 3012 3014 3017 3020 3023 3025 3028
2842 2842 2842 2843 2843 2844 2845 2846 2847 2849 2850 2851 2853 2854 2856 2857 2859 2860 2862 2864 2865 2867 2869 2870 2872 2874 2875 2878 2880 2882 2884 2886 2888 2890 2894 2896 2898 2901 2904 2907 2908 2909 2911 2914 2916 2920 2923 2926 2928 2930 2932 2934 2937 2940 2942 2945 2948 2950 2952 2954 2956 2958 2961 2964 2967 2970 2973 2976 2979 2982 2985 2988 2991 2994 2997 3000 3004 3006 3008 3010 3013 3016 3019 3021 3024 3026
2842 2842 2842 2843 2843 2844 2845 2846 2847 2848 2850 2851 2853 2854 2856 2857 2859 2860 2862 2863 2865 2867 2868 2870 2872 2874 2875 2877 2879 2880 2882 2884 2887 2890 2893 2895 2897 2900 2904 2907 2908 2909 2910 2913 2916 2919 2921 2924 2926 2929 2931 2933 2936 2939 2942 2945 2947 2949 2951 2953 2955 2958 2961 2963 2966 2969 2972 2974 2978 2981 2984 2986 2989 2992 2995 2999 3002 3005 3007 3009 3012 3014 3017 3020 3022 3025
2842 2842 2842 2843 2843 2844 2845 2846 2847 2848 2849 2851 2853 2854 2856 2857 2859 2860 2862 2864 2865 2867 2868 2870 2872 2874 2875 2877 2878 2880 2882 2884 2887 2890 2892 2894 2896 2899 2902 2905 2907 2909 2910 2913 2916 2918 2920 2923 2926 2928 2931 2933 2935 2938 2941 2945 2947 2949 2950 2953 2954 2957 2960 2963 2965 2968 2971 2973 2976 2980 2983 2985 2988 2991 2994 2997 3000 3003 3005 3008 3010 3013 3016 3018 3021 3023
2842 2842 2842 2843 2844 2844 2845 2846 2847 2849 2850 2851 2853 2854 2856 2858 2859 2861 2862 2864 2865 2866 2868 2869 2871 2873 2874 2876 2878 2880 2883 2885 2887 2889 2891 2894 2896 2898 2900 2904 2907 2909 2910 2912 2915 2917 2919 2922 2925 2928 2930 2932 2935 2938 2941 2944 2947 2948 2949 2952 2954 2955 2958 2961 2964 2967 2970 2973 2976 2979 2982 2985 2987 2990 2993 2995 2998 3001 3003 3006 3008 3011 3014 3017 3019 3021
2842 2843 2843 2844 2844 2845 2846 2846 2848 2849 2850 2851 2853 2854 2856 2858 2859 2861 2862 2864 2865 2866 2868 2869 2871 2872 2874 2876 2878 2879 2882 2884 2886 2888 2890 2893 2895 2897 2899 2903 2906 2908 2909 2911 2914 2916 2919 2921 2923 2926 2929 2931 2934 2938 2942 2944 2946 2948 2949 2951 2953 2955 2957 2960 2963 2966 2969 2972 2975 2978 2982 2984 2987 2990 2992 2994 2997 2999 3001 3004 3006 3009 3012 3014 3017 3019
2843 2843 2844 2844 2845 2845 2846 2847 2848 2849 2850 2852 2854 2855 2857 2858 2860 2861 2863 2864 2865 2866 2868 2869 2870 2872 2874 2875 2877 2879 2881 2883 2885 2887 2889 2892 2894 2896 2899 2901 2904 2907 2909 2911 2913 2916 2918 2920 2922 2924 2928 2931 2934 2937 2941 2943 2945 2947 2949 2950 2953 2954 2956 2959 2962 2965 2968 2971 2974 2977 2980 2984 2986 2989 2991 2994 2996 2998 3000 3002 3005 3008 3010 3013 3015 3018
2844 2844 2845 2845 2846 2846 2847 2848 2849 2850 2851 2852 2854 2855 2857 2859 2860 2861 2863 2864 2865 2867 2868 2869 2871 2872 2874 2875 2877 2879 2880 2883 2885 2887 2889 2891 2893 2895 2898 2900 2903 2906 2909 2910 2912 2914 2917 2919 2922 2924 2927 2930 2933 2936 2939 2941 2944 2946 2948 2949 2951 2952 2955 2958 2962 2965 2968 2971 2973 2975 2979 2982 2985 2988 2990 2993 2995 2998 3000 3002 3005 3007 3009 3012 3014 3016
2845 2845 2846 2846 2846 2847 2848 2848 2849 2850 2851 2853 2854 2855 2857 2858 2860 2861 2863 2864 2865 2867 2868 2869 2870 2872 2873 2875 2876 2878 2880 2882 2884 2886 2889 2890 2893 2895 2897 2899 2902 2905 2907 2909 2911 2914 2916 2918 2921 2924 2926 2929 2931 2934 2937 2940 2943 2945 2947 2949 2950 2953 2956 2959 2962 2965 2968 2970 2973 2974 2977 2980 2984 2987 2989 2992 2995 2997 2999 3002 3004 3007 3009 3011 3014 3016
2846 2846 2847 2847 2848 2848 2849 2849 2850 2851 2852 2853 2854 2856 2857 2859 2860 2861 2863 2864 2865 2866 2868 2869 2870 2871 2873 2874 2876 2878 2879 2881 2883 2885 2887 2890 2892 2894 2896 2899 2901 2904 2906 2909 2911 2913 2914 2917 2920 2922 2924 2927 2929 2932 2935 2939 2942 2944 2946 2948 2950 2953 2957 2959 2961 2964 2967 2969 2972 2974 2976 2979 2982 2985 2989 2991 2994 2996 2999 3001 3003 3005 3008 3010 3013 3015
2847 2847 2848 2848 2849 2849 2849 2850 2851 2852 2853 2854 2855 2857 2858 2859 2861 2862 2863 2864 2865 2867 2868 2869 2870 2872 2873 2874 2876 2877 2879 2881 2883 2885 2887 2889 2891 2894 2896 2898 2900 2902 2905 2907 2910 2912 2914 2916 2919 2921 2923 2926 2929 2932 2935 2938 2941 2944 2946 2949 2951 2953 2955 2958 2960 2963 2966 2969 2972 2974 2976 2978 2981 2984 2988 2991 2993 2995 2998 3000 3002 3004 3007 3009 3011 3014
2848 2849 2849 2849 2850 2850 2850 2851 2852 2853 2854 2854 2856 2857 2859 2860 2861 2862 2863 2864 2866 2867 2868 2869 2871 2872 2873 2875 2876 2878 2879 2881 2883 2885 2887 2889 2891 2893 2895 2897 2899 2902 2904 2906 2909 2911 2914 2915 2918 2920 2923 2925 2928 2931 2934 2938 2940 2943 2946 2948 2950 2952 2954 2958 2961 2964 2967 2969 2972 2974 2976 2978 2980 2983 2987 2990 2993 2995 2997 2999 3002 3004 3006 3009 3011 3013
2849 2850 2850 2850 2851 2851 2851 2852 2853 2853 2854 2855 2856 2858 2859 2860 2861 2862 2864 2865 2866 2867 2868 2869 2870 2872 2873 2874 2876 2878 2879 2881 2883 2884 2886 2888 2890 2892 2894 2897 2899 2901 2903 2905 2908 2910 2913 2914 2917 2919 2922 2925 2928 2931 2934 2937 2939 2942 2945 2947 2950 2952 2955 2958 2961 2964 2967 2969 2971 2974 2975 2977 2979 2981 2984 2988 2991 2994 2996 2999 3001 3004 3006 3008 3010 3013
2851 2851 2851 2852 2852 2852 2853 2853 2854 2854 2855 2856 2857 2858 2859 2860 2862 2863 2864 2865 2866 2867 2868 2869 2871 2872 2873 2874 2876 2878 2879 2881 2882 2884 2886 2888 2890 2892 2894 2896 2898 2900 2902 2904 2907 2909 2912 2914 2917 2919 2922 2924 2927 2929 2932 2935 2939 2941 2944 2947 2949 2952 2955 2957 2960 2963 2965 2968 2971 2973 2975 2977 2978 2980 2982 2986 2989 2993 2995 2998 3001 3003 3005 3008 3010 3013
2852 2852 2853 2853 2853 2854 2854 2854 2855 2855 2856 2857 2858 2859 2860 2861 2862 2863 2864 2865 2866 2868 2869 2870 2871 2872 2874 2875 2876 2878 2879 2881 2882 2884 2885 2887 2889 2891 2893 2895 2897 2899 2902 2904 2906 2908 2911 2914 2916 2919 2921 2923 2925 2928 2931 2934 2937 2940 2943 2946 2949 2952 2954 2957 2959 2962 2964 2967 2970 2972 2974 2976 2977 2979 2981 2984 2988 2991 2994 2997 3000 3002 3005 3007 3010 3012
2854 2854 2854 2854 2854 2855 2855 2855 2856 2856 2857 2858 2859 2859 2860 2861 2863 2864 2864 2866 2867 2868 2869 2870 2871 2873 2874 2875 2876 2878 2879 2881 2883 2884 2885 2887 2889 2891 2893 2894 2897 2899 2901 2903 2905 2907 2909 2912 2915 2917 2919 2922 2924 2927 2930 2933 2935 2939 2942 2945 2948 2951 2954 2957 2959 2962 2964 2966 2969 2972 2974 2975 2977 2979 2980 2983 2986 2990 2992 2995 2998 3001 3004 3006 3009 3011
2856 2856 2856 2856 2856 2856 2856 2857 2857 2858 2858 2859 2859 2860 2861 2862 2863 2864 2865 2866 2867 2868 2869 2870 2872 2873 2874 2875 2877 2878 2880 2881 2883 2884 2886 2887 2889 2890 2892 2894 2896 2898 2900 2902 2904 2906 2908 2911 2913 2916 2918 2921 2924 2926 2929 2931 2934 2937 2940 2944 2947 2950 2953 2956 2959 2961 2964 2966 2968 2970 2973 2975 2977 2979 2980 2982 2985 2988 2992 2994 2996 2999 3002 3004 3007 3010
2857 2857 2857 2857 2857 2857 2858 2858 2858 2859 2859 2859 2860 2861 2862 2863 2864 2864 2865 2866 2868 2869 2870 2871 2872 2873 2874 2875 2877 2878 2879 2881 2883 2884 2886 2887 2888 2890 2892 2894 2895 2897 2899 2901 2903 2905 2907 2909 2911 2914 2917 2920 2923 2925 2928 2930 2933 2936 2939 2942 2945 2949 2952 2955 2958 2961 2963 2965 2968 2970 2972 2974 2976 2978 2980 2981 2984 2987 2991 2993 2995 2998 3000 3003 3005 3008